TimeCST,TemperatureF,Dew PointF,Humidity,Sea Level PressureIn,VisibilityMPH,Wind Direction,Wind SpeedMPH,Gust SpeedMPH,PrecipitationIn,Events,Conditions,WindDirDegrees,DateUTC
12:56 AM,23.0,18.0,81,30.15,10.0,SW,3.5,-,N/A,,Clear,230,2012-02-16 06:56:00
1:56 AM,21.9,18.0,85,30.16,10.0,Calm,Calm,-,N/A,,Clear,0,2012-02-16 07:56:00
2:56 AM,19.9,16.0,85,30.16,10.0,Calm,Calm,-,N/A,,Clear,0,2012-02-16 08:56:00
3:56 AM,21.9,17.1,82,30.15,10.0,West,6.9,-,N/A,,Clear,270,2012-02-16 09:56:00
4:56 AM,21.9,17.1,82,30.17,10.0,West,4.6,-,N/A,,Clear,260,2012-02-16 10:56:00
5:56 AM,21.9,17.1,82,30.17,10.0,West,6.9,-,N/A,,Clear,270,2012-02-16 11:56:00
6:56 AM,19.9,15.1,81,30.20,10.0,West,10.4,-,N/A,,Clear,280,2012-02-16 12:56:00
7:56 AM,21.2,15.8,80,30.16,10.0,WNW,9.2,-,N/A,,Clear,290,2012-02-16 13:56:00
8:56 AM,24.1,17.1,75,30.25,10.0,West,8.1,-,N/A,,Clear,260,2012-02-16 14:56:00
9:56 AM,28.0,19.9,72,30.25,10.0,West,10.4,-,N/A,,Clear,270,2012-02-16 15:56:00
10:56 AM,33.1,19.9,59,30.23,10.0,WNW,9.2,-,N/A,,Clear,290,2012-02-16 16:56:00
11:56 AM,37.4,17.6,45,30.16,10.0,West,10.4,-,N/A,,Clear,270,2012-02-16 17:56:00
12:56 PM,39.9,16.0,38,30.19,10.0,WNW,13.8,23.0,N/A,,Clear,290,2012-02-16 18:56:00
1:56 PM,41.0,14.0,33,30.16,10.0,WNW,12.7,21.9,N/A,,Partly Cloudy,290,2012-02-16 19:56:00
2:56 PM,43.0,17.1,35,30.15,10.0,West,9.2,-,N/A,,Clear,260,2012-02-16 20:56:00
3:56 PM,44.1,16.0,32,30.13,10.0,West,9.2,-,N/A,,Partly Cloudy,260,2012-02-16 21:56:00
4:56 PM,43.0,16.0,34,30.12,10.0,WSW,6.9,-,N/A,,Clear,240,2012-02-16 22:56:00
5:56 PM,35.6,24.8,65,30.06,10.0,South,11.5,18.4,N/A,,Clear,180,2012-02-16 23:56:00
6:56 PM,34.0,21.9,61,30.12,10.0,South,10.4,-,N/A,,Partly Cloudy,190,2012-02-17 00:56:00
7:56 PM,32.0,21.9,66,30.11,10.0,South,9.2,-,N/A,,Partly Cloudy,180,2012-02-17 01:56:00
8:56 PM,32.0,24.1,73,30.09,10.0,South,11.5,-,N/A,,Partly Cloudy,180,2012-02-17 02:56:00
9:56 PM,32.0,25.0,75,30.06,10.0,South,11.5,-,N/A,,Scattered Clouds,180,2012-02-17 03:56:00
10:56 PM,30.0,25.0,82,30.04,10.0,SSW,8.1,-,N/A,,Partly Cloudy,200,2012-02-17 04:56:00
11:56 PM,30.0,25.0,82,30.02,10.0,SSW,6.9,-,N/A,,Scattered Clouds,200,2012-02-17 05:56:00